Regional Weather Roundup
Issued by NWS

Home | Current Version | Previous Version | Graphics & Text | Print | Product List | Glossary On
Versions: 1 2 3 4 5 6 7 8 9 10 11 12 13 14 15 16 17 18 19 20 21 22 23 24 25 26 27 28 29 30 31 32 33 34 35 36 37 38 39 40 41 42 43 44 45 46 47 48 49 50
000
ASUS43 KMKX 042100
RWRWI

WISCONSIN REGIONAL WEATHER ROUNDUP
NATIONAL WEATHER SERVICE MILWAUKEE/SULLIVAN WI
400 PM CDT WED MAY 04 2016

NOTE: "FAIR" INDICATES FEW OR NO CLOUDS BELOW 12,000 FEET WITH NO
SIGNIFICANT WEATHER AND/OR OBSTRUCTIONS TO VISIBILITY.

WIZ001-002-006>008-014>016-023>028-042200-
NORTHWEST WISCONSIN

CITY           SKY/WX    TMP DP  RH WIND       PRES   REMARKS
SUPERIOR ARPT  SUNNY     51  31  47 NE9       29.97F
ASHLAND        SUNNY     56  31  38 N9        29.98F
HAYWARD        SUNNY     60  19  20 N9G20     29.93F
SIREN          SUNNY     63  18  17 N17G23    29.93S
CUMBERLAND     SUNNY     59  19  21 N15G22    29.92F
RICE LAKE      SUNNY     62  17  17 N13G26    29.94S
CHETEK         SUNNY     61  26  26 N7G22     29.92S
LADYSMITH      SUNNY     59  26  28 N15       29.93S
EAU CLAIRE     NOT AVBL
MENOMONIE      SUNNY     65  25  22 N13G24    29.91S
NEW RICHMOND   SUNNY     64  19  17 N17G26    29.93F
OSCEOLA        SUNNY     65  22  19 N12G20    29.96S
$$

WIZ003>005-009-010-017-018-042200-
NORTH CENTRAL WISCONSIN

CITY           SKY/WX    TMP DP  RH WIND       PRES   REMARKS
MANITOWISH WTR CLOUDY    48  32  54 N15       29.94S
ARBOR VITAE    CLOUDY    49  33  53 N17G24    29.93S
WOODRUFF       CLOUDY    49  33  53 N17G24    29.93S
RHINELANDER    MOSUNNY   48  31  51 N13G22    29.92R
EAGLE RIVER    PTSUNNY   44  29  55 N15G22    29.92R
LAND O LAKES   CLOUDY    44  31  61 N16G23    29.94R
PHILLIPS       SUNNY     52  28  39 N16       29.92S
TOMAHAWK       PTSUNNY   50  31  49 N13G20    29.91S
MEDFORD        SUNNY     55  29  37 NW16G25   29.88S
MERRILL        MOSUNNY   54  33  46 N18G26    29.89R
$$

WIZ029-030-035-036-043>047-042200-
CENTRAL WISCONSIN

CITY           SKY/WX    TMP DP  RH WIND       PRES   REMARKS
WAUSAU         SUNNY     58  31  35 N18G24    29.85R
MOSINEE        MOSUNNY   57  30  35 N21G26    29.87R
MARSHFIELD     SUNNY     60  23  24 N22G29    29.85S
STEVENS POINT  MOSUNNY   58  29  33 N16G25    29.84S
WAUPACA        SUNNY     59  31  35 N17G23    29.83S
WAUTOMA        MOSUNNY   60  30  32 N17G25    29.81F
WISC RAPIDS    SUNNY     61  18  18 N16G30    29.85S
CAMP DOUGLAS   NOT AVBL
$$

WIZ011>013-019>022-031-037>040-048>050-042200-
NORTHEAST WISCONSIN

CITY           SKY/WX    TMP DP  RH WIND       PRES   REMARKS
ANTIGO         PTSUNNY   49  34  55 N16G25    29.87F
SHAWANO        CLOUDY    56  33  41 N16G22    29.84S
OCONTO         CLOUDY    52  35  52 N17G24    29.83S
STURGEON BAY   PTSUNNY   46  34  61 N21G30    29.86R
GREEN BAY      CLOUDY    52  36  54 N16G25    29.83R
MANITOWOC      NOT AVBL
APPLETON       PTSUNNY   54  30  40 N18G25    29.81S
CLINTONVILLE   PTSUNNY   54  32  43 N13G26    29.84R
OSHKOSH        CLOUDY    54  34  46 N18G28    29.81S
$$

WIZ032>034-041-042-053>061-042200-
SOUTHWEST WISCONSIN

CITY           SKY/WX    TMP DP  RH WIND       PRES   REMARKS
LA CROSSE      MOSUNNY   64  30  27 N18G24    29.87S
SPARTA         SUNNY     62  26  24 N18G29    29.87S
VIROQUA        MOSUNNY   60  30  32 N21G28    29.87S
BOSCOBEL       MOSUNNY   64  27  24 N15G28    29.85S
PRAIRIE DU CHI SUNNY     63  29  27 NW17G24   29.86S
PLATTEVILLE    MOSUNNY   61  32  34 N14G25    29.84S
$$

WIZ056-057-062-063-064-067-068-042200-
SOUTH CENTRAL WISCONSIN

CITY           SKY/WX    TMP DP  RH WIND       PRES   REMARKS
REEDSBURG      MOSUNNY   61  32  33 N14G22    29.82F
BARABOO/DELLS  PTSUNNY   61  24  23 NW18G25   29.82S
LONE ROCK      NOT AVBL
MINERAL POINT  PTSUNNY   61  27  27 N18       29.83S
MADISON        CLOUDY    57  32  38 N16G25    29.81S
MIDDLETON      CLOUDY    59  31  34 N15       29.82S
WATERTOWN      PTSUNNY   55  38  54 N10G20    29.80S
MONROE         PTSUNNY   59  32  36 N16G28    29.81S
JANESVILLE     CLOUDY    57  36  44 N13G21    29.80S
$$

WIZ051-052-058>065-066-070>072-042200-
SOUTHEAST WISCONSIN

CITY           SKY/WX    TMP DP  RH WIND       PRES   REMARKS
MILWAUKEE      CLOUDY    46  37  71 NE10      29.81R
WAUKESHA       CLOUDY    52  36  54 N14G23    29.81S
MILWAUKEE/TIMM NOT AVBL
RACINE         CLOUDY    46  37  71 N10       29.82S
BURLINGTON     CLOUDY    50  36  58 N16       29.80S
KENOSHA        CLOUDY    49  38  65 NE9       29.80S
FOND DU LAC    CLOUDY    54  36  50 N18G24    29.81F
SHEBOYGAN      CLOUDY    50  36  58 N13G23    29.80S
WEST BEND      CLOUDY    52  36  54 N13G18    29.80S
JUNEAU         CLOUDY    55  36  49 N17G24    29.82S
$$

LSZ147-162-042200-
LAKE SUPERIOR

STATION/POSITION TIME  TEMP    WIND        PRES    WAVE
                       AIR SEA DIR/SP/G            HT/PER
                 (UTC) (F)     (DEG/KT/KT) (MB)    (FT/S)
W MID LAKE BUOY  1950   39 37  220/  4/  6 1016.3F   2/ 5
DEVILS ISLAND    2000   46     130/  7/  9 1015.8F
SAXON HARBOR     2000   45      50/  8/ 10 1015.6
$$

LMZ867-665-643>646-042200-
LAKE MICHIGAN

STATION/POSITION TIME  TEMP    WIND        PRES    WAVE
                       AIR SEA DIR/SP/G            HT/PER
                 (UTC) (F)     (DEG/KT/KT) (MB)    (FT/S)
CHAMBERS ISLAND  2000   45     350/ 13/ 17 1010.8R
N MID LAKE BUOY  1950   41 39  330/ 17/ 21 1009.4R   3/ 5
NORTHPORT PIER   2004   41     340/ 24     1010.8R
ALGOMA LAKESHORE 2000           10/ 21/ 30   N/A
KEWAUNEE LAKESHO 2000   48      10/ 15/ 21 1009.1R
SHEBOYGAN LAKESH 2000   47      10/ 18/ 20 1010.0R
PORT WASHINGTON  2000   51     360/  8/ 14 1010.2S
S MID LAKE BUOY  1950   41 40  360/ 21/ 25 1007.7R   8/ 8
KENOSHA   LAKESH 2000   45      10/ 13/ 15 1009.5R
$$

TC  - TEMPERATURE IN CELSIUS
VSB - VISIBILITY IN STATUTE MILES
WCI - WIND CHILL INDEX
HX  - HEAT INDEX





USA.gov is the U.S. government's official web portal to all federal, state and local government web resources and services.